Regional Weather Roundup
Issued by NWS Charleston, SC

Current Version | Previous Version | Graphics & Text | Print | Product List | Glossary On
Versions: 1 2 3 4 5 6 7 8 9 10 11 12 13 14 15 16 17 18 19 20 21 22 23 24 25 26 27 28 29 30 31 32 33 34 35 36 37 38 39 40 41 42 43 44 45 46 47 48 49 50
000
ASUS42 KCHS 241125
RWRCHS

REGIONAL WEATHER ROUNDUP
NATIONAL WEATHER SERVICE CHARLESTON SC
700 AM EDT THU JUL 24 2014

NOTE: "FAIR" INDICATES FEW OR NO CLOUDS BELOW 12,000 FEET WITH NO
SIGNIFICANT WEATHER AND/OR OBSTRUCTIONS TO VISIBILITY.

NOT ALL STATIONS ARE QUALITY CONTROLLED BY THE NATIONAL
WEATHER SERVICE. USE DATA WITH CAUTION...ESPECIALLY
DEWPOINT OBSERVATIONS.

SCZ027-030-031-034>040-042>050-241200-
...SOUTH CAROLINA...

CITY           SKY/WX    TMP DP  RH WIND       PRES   REMARKS
N CHARLESTON   PTCLDY    79  76  90 SW6       29.96R
WATERFRONT PRK   N/A     81 N/A N/A SW3         N/A
FORT JOHNSON   NOT AVBL
MOUNT PLEASANT FAIR      81  79  94 SW5       29.96S
JOHNS ISLAND   SUNNY     81  72  74 CALM      29.97R
PINOPOLIS        N/A     81  75  83 SW8       29.86F
MONCKS CORNER    N/A     77  77 100 SW6       29.96R
SUMMERVILLE    FAIR      75  75 100 CALM      29.97R
BEAUFORT MCAS  CLEAR     78  74  87 W5        29.97R
BEAUFORT ARPT  FAIR      79  77  94 SW5       29.97R FOG
HILTON HEAD IS CLEAR     79  73  83 CALM      29.98R
GEORGETOWN     NOT AVBL
WALTERBORO     SUNNY     77 N/A N/A W3        29.97S
ORANGEBURG     CLEAR     75  73  93 SW5       29.96R FOG
BARNWELL       FAIR      75  73  94 SW3       29.97R
AIKEN          FAIR      73  73 100 SW6       30.00S
MANNING        FAIR      79 N/A N/A SW6       29.95S
KINGSTREE      NOT AVBL
COLUMBIA       CLEAR     78  73  84 SW5       29.94R
SUMTER         CLEAR     76  75  98 SW9       29.92R
FLORENCE       PTCLDY    77  74  90 SW6       29.93S
MYRTLE BEACH   CLEAR     79  75  89 W7        29.94S
N MYRTLE BEACH CLEAR     79  76  90 W8        29.93S

$$

GAZ063-065-086>088-099>101-113>116-118-119-134-136>141-150-241200-
...GEORGIA...

CITY           SKY/WX    TMP DP  RH WIND       PRES   REMARKS
SAVANNAH ARPT  CLEAR     77  72  84 SW6       29.98S
HUNTER AAF     CLEAR     76  74  92 SW6       29.97R
FORT STEWART   CLEAR     76  73  88 SW6       29.98R
STATESBORO     NOT AVBL
SYLVANIA       SUNNY     76  75  99 CALM      29.99R
CLAXTON        FAIR     N/A N/A N/A CALM      29.99R
THOMSON        CLEAR     76  76 100 CALM      30.01S
AUGUSTA-BUSH   CLEAR     74  71  91 W5        29.95R
AUGUSTA-DANIEL CLEAR     76  72  87 W3        29.97R
SWAINSBORO     FAIR      75  75 100 CALM      30.00R
VIDALIA          N/A     73  72  94 SW5       29.99S
ALMA           CLEAR     73  71  93 W3        30.00R
WAYCROSS       CLEAR     76  75  97 SW3       30.01R
JESUP          NOT AVBL
BRUNSWICK      CLEAR     77  72  83 CALM      30.01R
SAINT SIMONS   CLEAR     77  73  87 W6        30.00R

$$

SCZ027-028-034-036>038-045-046-048>050-GAZ119-141-241200-
...LAKE AND SUPPLEMENTAL COASTAL OBSERVATIONS...

STATION/POSITION TIME  TEMP    WIND        PRES    WAVE   SWELL
                       AIR SEA DIR/SP/G            HT/PER HT/PER/DIR
                 (UTC) (F)     (DEG/KT/KT) (MB)    (FT/S) (FT/S/D)
UPR LAKE MARION  NOT AVBL
WINYAH BAY       1000   78     240/  4     1014.0S
LAKE MURRAY      1000   78     240/  7/ 10 1012.9S
ACE BASIN NERRS  1000   79     250/  1     1014.0S
FORT PULASKI     1100   79     250/  5/  7 1015.4R
SAPELO ISLAND    1000   79     230/  6     1016.0S

$$

ANZ835-935-AMZ111-154-330-350-352-354-374-450-454-472-241200-
...C-MAN AND BUOY OBSERVATIONS...

STATION/POSITION TIME  TEMP    WIND        PRES    WAVE   SWELL
                       AIR SEA DIR/SP/G            HT/PER HT/PER/DIR
                 (UTC) (F)     (DEG/KT/KT) (MB)    (FT/S) (FT/S/D)
FOLLY BEACH CMAN 1100   81     240/  7/  9 1014.9R
BUOY 41004       1100   82 82  230/ 16/ 17 1013.9R   4/ 6   2/ 7
BUOY 41008       1100   82 84  270/ 14/ 16 1015.2R   3/ 5   2/140/ 9
5E ST. MARYS GA  1100      84                N/A     2/ 8
FRYING PAN BUOY  NOT AVBL
BUOY 41025       1100          VRB 17/ 19  1012.3R   5/ 5   2/140/ 8
CAPE LOOKOUT NC  1100   80     240/ 12/ 15 1013.2R
BUOY 41002       1013   82 82  220/ 19/ 23 1016.7R   5/ 6   2/180/10
BUOY 41010       1100   83 83  210/ 12/ 16 1017.2R   4/ 7   2/140/ 7
BUOY 41012       NOT AVBL
ST AUGUSTINE FL  1100   77     250/  2/  3 1017.4R
CAPERS NEARSHORE 1000   83     240/ 14/ 16   N/A
FRIPP NEARSHORE  NOT AVBL


$$


USA.gov is the U.S. government's official web portal to all federal, state and local government web resources and services.